Location: Delettes
(50.6178°N, 2.2123°E)
Time: 11:03:29
(UTC+00:00)

ATLAS 3B R/B - Pass Details

Date: 27 February 2020
Orbit: 1029 x 1166 km, 63.8° (Epoch: 12 March)

Event Time Altitude Azimuth Distance (km) Brightness Sun altitude
Rises 19:24:00 0° 312° (NW) 3,792 6.6 -19.1°
Reaches altitude 10° 19:26:48 10° 319° (NW) 2,845 5.7 -19.5°
Maximum altitude 19:33:04 41° 29° (NNE) 1,495 3.3 -20.5°
Enters shadow 19:35:30 31° 71° (ENE) 1,773 3.4 -20.9°
